Wind_Speed
35 35 35 34 34 33 33 33 32 31 29 26 22 18 17 16 13 11 10 10 11 12 13 15 16 17 17 18 18 19 17 17 16 18 19 20 22 22 23 19 21 19 20 22 22
36 37 36 35 35 34 34 33 33 32 31 28 24 21 19 18 16 14 13 13 11 12 14 15 17 18 19 19 20 20 19 19 19 18 19 22 23 23 23 22 21 19 20 22 22
37 37 36 36 36 35 34 35 35 33 32 29 26 23 22 20 17 15 15 16 14 14 14 16 18 19 20 20 21 21 20 21 22 20 20 23 25 23 23 24 21 22 22 24 24
41 40 38 37 36 36 35 34 34 34 32 31 29 27 26 23 21 18 17 17 18 18 17 18 19 20 22 22 22 22 22 22 23 22 22 24 25 23 23 23 21 22 24 24 25
46 44 42 41 38 37 37 36 35 33 33 32 31 30 28 26 23 22 21 20 20 21 21 22 22 22 23 24 24 22 25 24 23 24 24 25 26 23 25 24 21 22 24 24 23
50 48 46 46 43 42 40 39 38 36 34 33 33 32 32 32 30 27 25 24 23 24 24 25 26 24 23 25 25 24 24 25 24 26 24 25 27 23 25 25 21 21 23 23 23
53 52 50 50 48 47 46 44 43 40 38 37 36 35 35 35 34 32 30 29 27 28 28 27 28 28 26 26 27 26 26 25 26 26 25 25 27 25 23 24 21 20 23 23 23
57 56 53 53 52 51 50 49 47 45 43 41 40 39 39 38 36 36 34 33 33 33 31 30 31 31 28 27 27 28 26 26 26 26 27 25 21 30 22 21 22 22 21 21 20
60 62 58 58 56 54 53 53 52 50 48 45 43 42 41 40 39 38 38 38 37 37 36 35 35 33 30 30 29 28 27 26 27 27 28 27 20 30 25 20 21 22 21 20 19
46 56 55 60 60 59 57 55 55 54 52 51 48 47 46 44 42 42 43 42 42 42 40 38 37 35 29 33 31 28 28 27 27 28 28 28 22 26 25 18 19 20 21 20 18
46 44 47 51 54 58 59 58 59 58 57 57 54 53 51 49 48 47 47 47 46 46 45 44 40 31 35 37 32 29 29 27 29 30 28 29 23 25 26 20 17 18 19 18 16
51 50 46 47 47 51 53 55 57 59 57 59 59 58 57 56 54 54 53 51 50 49 49 44 38 36 37 34 34 31 29 27 29 31 30 27 22 25 23 21 18 18 17 16 15
58 57 53 53 52 49 50 50 51 53 57 56 55 55 55 55 53 53 52 51 48 46 45 44 38 37 35 35 35 32 30 29 31 31 30 29 21 21 23 19 17 17 16 14 13
62 61 59 57 56 54 53 50 49 49 52 50 48 53 51 49 50 47 46 45 43 42 42 42 39 36 36 36 37 33 32 31 32 32 29 27 24 17 20 18 18 16 14 14 13
65 61 62 64 59 57 53 52 52 53 53 53 52 51 50 48 47 44 43 42 41 40 40 40 38 38 37 37 38 35 33 32 33 33 31 24 30 15 18 16 15 14 14 14 14
64 65 64 64 63 62 64 57 54 54 55 50 51 49 50 47 44 43 45 44 43 43 40 40 40 39 38 38 39 38 35 34 35 34 36 25 28 14 18 17 15 13 13 14 13
56 60 64 67 66 63 63 61 60 60 56 55 53 49 46 47 46 47 44 45 46 44 41 38 39 38 39 40 39 38 36 38 39 37 35 28 29 17 18 17 16 14 14 14 14
52 54 56 60 63 64 67 64 63 64 64 58 55 53 51 48 47 44 45 48 44 42 44 43 43 42 40 40 40 39 39 40 42 40 37 35 31 20 20 20 19 17 16 15 13
50 50 51 53 56 58 65 68 65 66 65 63 60 56 53 49 46 49 49 47 47 49 43 43 45 43 43 41 42 43 42 39 42 43 43 39 31 21 21 21 21 20 18 17 15
45 49 49 48 51 51 57 61 62 65 66 62 60 59 56 54 51 49 48 47 47 51 51 48 46 45 42 45 46 48 44 43 44 47 46 45 33 23 21 21 21 21 20 19 17
47 45 47 50 51 53 55 55 54 56 58 59 60 61 59 57 55 52 50 50 49 47 47 50 51 50 47 46 48 50 51 48 47 49 49 46 37 28 22 21 22 23 21 22 18
54 50 45 49 53 55 49 47 49 51 52 54 55 56 57 57 58 55 51 49 49 49 46 45 49 51 50 48 47 49 51 53 53 51 50 51 45 33 27 25 24 23 23 24 21
58 55 50 47 46 46 47 50 47 44 47 46 49 50 54 57 56 53 52 48 47 46 47 48 48 48 49 49 47 45 48 52 55 55 55 56 51 32 31 28 29 26 26 27 23
60 59 56 54 51 46 43 42 40 43 44 42 43 45 48 49 51 48 47 48 49 46 44 44 48 50 48 48 47 44 44 51 57 59 58 55 52 38 33 33 33 31 29 29 26
62 62 61 59 55 51 47 43 39 38 39 40 44 41 45 45 41 44 45 42 41 43 43 45 46 47 48 49 49 47 45 46 48 51 58 58 56 45 40 41 40 40 33 30 29
61 62 61 60 58 55 53 48 44 42 41 39 39 40 43 44 48 48 43 42 42 43 42 41 40 43 47 49 50 48 47 49 49 45 47 54 57 47 39 43 46 45 39 32 34
63 61 61 61 61 59 54 50 47 44 44 44 43 43 43 45 45 48 57 54 50 43 38 39 41 42 42 44 48 47 42 42 42 46 46 46 44 40 39 38 41 44 42 37 37
Wind_Direction
224 224 222 222 221 222 220 218 216 215 213 206 208 216 218 219 223 237 251 261 271 276 277 280 279 278 278 279 279 278 279 282 290 304 311 310 302 297 293 289 288 281 278 284 293
227 225 223 221 221 222 221 222 219 216 215 213 212 214 224 226 226 233 247 256 270 279 284 284 282 281 279 279 278 278 278 279 283 295 305 310 303 297 289 289 286 280 276 283 290
230 228 227 224 221 220 223 222 222 219 220 220 217 218 223 229 230 239 249 257 265 275 284 287 285 281 279 276 276 277 275 280 281 288 297 308 304 295 285 283 285 284 281 283 289
232 231 231 229 227 223 222 223 221 222 221 224 224 224 223 224 232 244 252 261 263 272 279 281 282 280 277 275 274 276 276 277 278 284 296 307 305 297 284 280 285 285 288 288 293
232 232 231 233 231 230 229 225 224 223 224 224 226 227 225 228 238 249 254 258 263 269 277 278 279 278 278 277 277 276 277 278 279 284 296 306 306 298 284 282 285 290 289 289 289
233 234 232 233 233 234 235 232 231 228 229 229 229 229 231 236 243 250 256 260 264 266 272 276 277 277 275 277 277 276 276 276 277 281 292 303 307 297 287 287 290 289 288 285 286
234 235 234 235 234 234 235 238 238 236 234 236 236 236 237 240 245 249 253 259 264 266 272 276 277 273 272 274 279 275 274 275 277 281 291 303 308 296 290 290 293 289 286 288 292
237 236 234 236 235 236 235 237 239 240 240 238 240 241 242 244 246 250 253 257 262 266 267 272 274 272 269 269 275 275 272 273 273 279 288 298 307 294 293 291 293 288 287 287 290
240 240 238 239 238 237 238 238 238 238 239 240 240 241 242 243 245 248 252 256 261 265 267 271 272 271 266 265 270 273 272 271 274 276 286 296 307 291 292 296 288 289 291 293 295
238 237 239 241 241 242 239 241 241 240 240 240 240 242 242 244 248 249 252 255 260 263 266 266 267 268 264 261 263 272 274 271 273 272 283 292 306 288 290 290 282 285 289 289 293
244 241 236 237 240 241 241 241 241 242 241 240 241 241 242 245 248 251 252 255 259 262 263 264 265 267 252 255 263 266 270 273 271 272 276 287 301 286 289 288 282 277 281 285 293
239 241 245 244 242 242 236 238 240 242 241 243 242 244 245 247 250 252 252 253 256 259 262 261 260 250 252 254 260 266 271 272 268 272 275 284 297 292 282 283 281 276 281 283 292
240 237 238 240 243 244 246 237 240 240 239 240 242 243 246 249 250 249 250 252 252 254 255 255 252 248 247 251 257 263 270 268 269 268 274 282 292 290 284 283 282 275 276 280 291
239 242 239 240 239 243 243 246 244 247 243 240 243 244 243 244 245 245 245 247 250 250 250 249 249 246 248 250 253 259 266 265 269 269 269 280 287 290 287 287 287 280 277 282 288
241 239 242 242 239 240 243 244 243 245 245 241 242 243 244 244 248 246 246 246 243 243 244 246 243 243 244 247 250 258 260 264 267 267 268 278 284 289 293 285 285 281 280 285 290
240 240 240 240 244 243 242 242 245 244 242 246 245 243 244 246 245 245 244 243 241 240 240 242 242 243 245 245 249 253 253 259 262 265 263 271 276 284 287 290 287 286 285 289 292
239 240 241 239 241 243 244 242 242 242 244 245 245 246 242 245 244 242 245 246 245 245 242 242 242 242 244 246 245 248 251 257 259 259 266 267 268 276 278 282 287 290 293 295 298
239 239 238 239 239 239 241 241 240 242 243 245 247 245 244 242 245 243 243 244 246 247 246 242 240 243 243 240 242 244 249 253 259 260 262 263 264 269 272 276 280 289 292 304 304
238 237 237 238 238 237 240 240 240 241 244 245 243 245 245 245 242 243 242 243 245 246 246 242 239 240 243 239 238 240 247 251 255 259 262 261 260 262 268 269 278 286 293 300 310
237 237 236 236 237 236 238 241 242 241 244 245 244 243 243 243 244 240 240 241 242 244 243 244 245 245 242 239 237 239 243 246 248 256 259 262 261 261 265 268 271 280 285 291 306
238 237 234 233 233 234 237 243 243 244 242 243 244 244 244 244 242 242 241 241 242 242 243 245 245 246 247 245 241 239 242 244 247 250 257 262 259 257 259 262 267 276 281 287 301
235 235 235 234 234 237 239 237 237 238 240 240 241 240 242 244 245 243 243 242 242 243 243 244 245 244 245 246 246 246 246 242 241 247 252 257 257 258 254 258 265 271 277 283 291
234 234 233 234 236 235 236 236 235 235 239 238 239 238 235 238 241 243 243 244 244 244 243 244 246 246 246 246 248 250 251 245 240 244 248 253 257 252 253 252 253 260 267 276 284
234 233 230 232 233 234 233 233 234 235 236 238 239 237 235 238 239 243 245 243 244 245 246 244 245 246 248 247 248 247 247 246 243 243 247 248 253 244 242 245 250 253 255 267 274
233 234 233 235 236 235 233 234 234 234 235 234 236 238 235 240 236 239 238 238 241 245 243 242 243 244 246 249 247 245 247 251 251 252 250 250 252 250 246 245 245 248 251 256 266
232 233 234 235 235 233 237 235 233 234 237 238 238 238 238 240 237 233 237 236 238 240 238 242 244 245 245 247 249 249 250 251 252 253 256 256 255 255 251 250 249 252 252 248 257
230 231 232 232 233 234 235 238 239 236 235 237 237 238 239 239 241 239 239 240 240 235 239 242 247 245 243 246 250 248 249 253 255 258 262 259 261 250 252 250 249 254 252 250 251
Height
5775 5778 5780 5783 5785 5788 5791 5794 5797 5800 5802 5803 5806 5810 5811 5812 5813 5815 5816 5817 5816 5816 5816 5816 5815 5815 5814 5814 5814 5813 5813 5812 5812 5810 5808 5806 5804 5804 5802 5801 5799 5799 5797 5796 5794
5770 5772 5775 5777 5780 5783 5785 5789 5791 5795 5797 5799 5801 5804 5807 5809 5809 5811 5813 5813 5813 5814 5813 5813 5812 5811 5811 5811 5811 5810 5810 5808 5808 5807 5806 5804 5802 5800 5799 5797 5796 5795 5794 5792 5791
5763 5767 5769 5771 5774 5776 5780 5783 5786 5789 5792 5796 5797 5799 5802 5804 5806 5807 5808 5809 5810 5810 5810 5810 5809 5808 5807 5806 5807 5807 5806 5805 5804 5803 5802 5800 5798 5797 5794 5793 5792 5791 5790 5788 5787
5755 5759 5763 5766 5769 5770 5772 5776 5779 5783 5785 5790 5792 5794 5796 5798 5802 5802 5803 5804 5806 5807 5806 5807 5805 5804 5803 5802 5801 5803 5802 5801 5799 5798 5797 5796 5794 5793 5790 5789 5789 5787 5786 5784 5782
5747 5751 5754 5759 5761 5765 5768 5770 5772 5775 5779 5783 5786 5788 5791 5793 5796 5797 5799 5800 5801 5802 5802 5802 5802 5801 5800 5798 5798 5797 5797 5797 5796 5794 5794 5792 5789 5788 5785 5785 5785 5783 5781 5779 5777
5737 5742 5745 5750 5752 5757 5761 5764 5767 5769 5773 5776 5779 5782 5785 5788 5790 5792 5793 5795 5796 5797 5797 5796 5797 5797 5796 5795 5794 5793 5793 5792 5792 5790 5790 5788 5784 5783 5781 5780 5780 5778 5776 5774 5773
5726 5731 5735 5739 5742 5747 5751 5756 5760 5763 5765 5769 5773 5775 5778 5781 5783 5785 5787 5789 5790 5791 5792 5791 5791 5791 5792 5791 5790 5788 5788 5787 5786 5786 5785 5785 5781 5778 5777 5776 5776 5774 5771 5769 5768
5714 5719 5723 5728 5732 5736 5740 5745 5750 5755 5758 5761 5764 5768 5771 5773 5775 5778 5780 5782 5783 5784 5785 5785 5785 5785 5786 5785 5785 5784 5784 5782 5782 5781 5780 5780 5780 5770 5773 5773 5770 5768 5766 5765 5764
5702 5708 5711 5717 5721 5725 5729 5734 5739 5743 5748 5752 5756 5759 5763 5765 5767 5770 5772 5774 5775 5776 5777 5778 5779 5779 5780 5780 5780 5779 5779 5778 5777 5776 5776 5774 5776 5766 5768 5768 5766 5764 5762 5761 5758
5691 5696 5699 5704 5708 5714 5717 5722 5727 5732 5737 5741 5745 5750 5754 5757 5758 5761 5763 5765 5767 5768 5770 5771 5771 5773 5775 5773 5774 5773 5773 5773 5772 5772 5772 5770 5771 5764 5763 5764 5762 5760 5758 5757 5755
5680 5684 5687 5692 5697 5701 5706 5710 5716 5721 5724 5729 5734 5737 5741 5745 5749 5751 5754 5756 5758 5760 5761 5762 5764 5770 5765 5766 5768 5768 5767 5768 5766 5765 5767 5765 5766 5761 5758 5759 5758 5756 5754 5753 5751
5670 5675 5678 5681 5685 5689 5692 5698 5702 5708 5712 5716 5721 5727 5729 5733 5737 5741 5744 5746 5748 5751 5752 5755 5758 5757 5758 5761 5762 5762 5762 5763 5761 5760 5760 5761 5762 5757 5755 5755 5754 5752 5751 5749 5747
5658 5662 5667 5671 5675 5679 5681 5685 5690 5693 5698 5706 5709 5713 5719 5722 5725 5730 5732 5734 5737 5740 5743 5745 5749 5750 5751 5753 5755 5755 5756 5756 5755 5754 5755 5755 5758 5754 5750 5751 5750 5748 5746 5745 5743
5646 5651 5654 5658 5665 5668 5671 5675 5678 5682 5685 5696 5699 5702 5707 5710 5713 5718 5719 5725 5728 5732 5733 5735 5740 5744 5744 5747 5747 5748 5749 5749 5748 5748 5749 5751 5750 5751 5748 5747 5746 5744 5743 5741 5740
5631 5637 5643 5643 5652 5656 5660 5663 5668 5673 5672 5682 5688 5692 5696 5700 5707 5710 5712 5714 5718 5721 5724 5727 5731 5734 5736 5739 5740 5742 5743 5742 5742 5741 5742 5747 5743 5748 5744 5744 5742 5740 5739 5737 5736
5615 5621 5628 5634 5638 5642 5645 5651 5657 5661 5663 5669 5676 5682 5685 5690 5694 5697 5701 5704 5708 5711 5714 5717 5722 5726 5728 5731 5732 5734 5736 5736 5735 5734 5734 5741 5739 5745 5741 5741 5739 5737 5736 5734 5732
5599 5605 5612 5619 5624 5628 5632 5639 5643 5646 5657 5661 5665 5669 5674 5677 5682 5686 5690 5693 5697 5701 5705 5710 5712 5716 5719 5721 5724 5727 5729 5728 5727 5728 5729 5734 5734 5739 5737 5737 5736 5734 5732 5730 5729
5585 5591 5598 5603 5608 5611 5616 5624 5626 5638 5642 5650 5654 5656 5662 5666 5671 5676 5679 5683 5687 5691 5694 5698 5703 5706 5709 5713 5716 5718 5720 5721 5719 5721 5723 5725 5727 5734 5733 5733 5732 5731 5729 5728 5725
5571 5577 5583 5589 5592 5594 5599 5605 5619 5626 5630 5638 5642 5644 5649 5655 5659 5664 5668 5672 5675 5680 5684 5687 5691 5695 5699 5703 5707 5709 5711 5715 5713 5713 5712 5715 5723 5728 5728 5728 5728 5727 5726 5724 5722
5559 5564 5572 5576 5579 5580 5583 5593 5605 5611 5615 5621 5627 5631 5637 5642 5648 5652 5655 5661 5665 5669 5671 5676 5682 5685 5689 5691 5695 5698 5704 5704 5705 5705 5705 5705 5715 5722 5723 5723 5723 5722 5721 5720 5719
5547 5551 5560 5564 5566 5566 5572 5584 5593 5597 5601 5607 5611 5618 5624 5629 5635 5639 5642 5649 5653 5658 5661 5665 5670 5676 5679 5682 5684 5688 5690 5695 5698 5698 5697 5699 5706 5714 5717 5717 5717 5717 5716 5715 5714
5534 5541 5547 5550 5555 5559 5566 5574 5579 5582 5587 5593 5599 5605 5612 5616 5620 5626 5632 5636 5642 5646 5650 5655 5658 5662 5668 5671 5674 5676 5680 5682 5685 5690 5692 5691 5694 5705 5710 5711 5711 5710 5710 5709 5709
5521 5528 5535 5540 5544 5549 5553 5560 5566 5573 5576 5582 5587 5592 5597 5602 5609 5613 5619 5625 5630 5635 5638 5642 5647 5651 5656 5660 5664 5667 5670 5671 5674 5679 5680 5681 5684 5699 5701 5703 5702 5703 5703 5702 5704
5504 5512 5520 5525 5533 5539 5544 5551 5557 5562 5567 5571 5576 5580 5584 5591 5596 5602 5607 5613 5619 5623 5628 5630 5635 5639 5645 5647 5652 5656 5657 5658 5662 5665 5668 5672 5675 5688 5692 5693 5693 5693 5696 5697 5698
5489 5499 5507 5514 5522 5529 5536 5543 5548 5552 5557 5562 5566 5571 5576 5582 5588 5593 5596 5602 5607 5611 5615 5620 5624 5627 5631 5634 5638 5643 5647 5649 5652 5658 5658 5662 5665 5678 5682 5683 5684 5683 5688 5690 5692
5477 5486 5495 5503 5511 5518 5524 5532 5539 5545 5549 5553 5558 5563 5567 5572 5577 5582 5586 5592 5597 5602 5604 5609 5614 5617 5621 5623 5625 5632 5639 5640 5642 5646 5650 5653 5657 5668 5672 5672 5674 5676 5680 5683 5683
5463 5472 5480 5488 5496 5503 5515 5524 5531 5536 5540 5543 5547 5551 5555 5560 5565 5570 5575 5581 5586 5592 5595 5599 5604 5607 5612 5612 5612 5623 5632 5632 5636 5637 5641 5642 5652 5654 5656 5660 5666 5668 5670 5673 5675